Snowfall_Accumulation
0.0 0.0 0.0 0.0 0.1 0.1 2.0 0.1 1.6 0.0 0.0 0.0 0.0 0.0 0.0 0.0 0.0 0.0 0.0 0.0 0.0 0.0 0.0 0.0 0.0 0.0 0.0 0.0 0.0 0.0 0.0 0.0 0.0 0.0 0.0 0.0 0.0 0.0 0.0 0.0 0.0 0.0 0.0 0.0
0.5 0.0 0.0 0.1 0.0 0.0 0.0 0.0 0.0 0.0 0.0 0.0 0.0 0.0 0.0 0.0 0.0 0.0 0.0 0.0 0.0 0.0 0.0 0.0 0.0 0.0 0.0 0.0 0.0 0.0 0.0 0.0 0.0 0.0 0.0 0.0 0.0 0.0 0.0 0.0 0.0 0.0 0.0 0.0
0.7 0.0 0.0 0.5 0.0 0.0 0.0 0.0 0.0 0.2 0.0 0.0 0.0 0.0 0.0 0.0 0.0 0.0 0.0 0.0 0.0 0.0 0.0 0.0 0.0 0.0 0.0 0.0 0.0 0.0 0.0 0.0 0.0 0.0 0.0 0.0 0.0 0.0 0.0 0.0 0.0 0.0 0.0 0.0
0.5 0.0 0.4 0.0 0.0 0.0 0.0 0.0 0.0 0.0 0.0 0.0 0.0 0.0 0.0 0.0 0.0 0.0 0.0 0.0 0.0 0.0 0.0 0.0 0.0 0.0 0.0 0.0 0.0 0.0 0.0 0.0 0.0 0.0 0.0 0.0 0.0 0.0 0.1 0.1 0.1 0.1 0.4 0.3
0.4 0.1 0.0 0.0 0.0 0.0 0.0 0.0 0.0 0.0 0.0 0.0 0.0 0.0 0.0 0.0 0.0 0.0 0.0 0.0 0.0 0.0 0.0 0.0 0.0 0.0 0.0 0.0 0.0 0.0 0.0 0.0 0.0 0.0 0.0 0.0 0.1 0.1 0.1 0.1 0.4 0.4 0.2 0.2
0.4 0.8 0.5 0.0 0.0 0.0 0.0 0.1 0.0 0.0 0.0 0.0 0.0 0.0 0.0 0.0 0.0 0.0 0.0 0.0 0.0 0.0 0.0 0.0 0.0 0.0 0.0 0.0 0.0 0.0 0.0 0.0 0.0 0.0 0.0 0.1 0.1 0.1 0.7 0.2 0.4 0.6 0.4 0.2
0.1 0.6 0.1 0.0 0.0 0.0 0.1 0.0 0.0 0.0 0.0 0.0 0.0 0.0 0.0 0.0 0.0 0.0 0.0 0.0 0.0 0.0 0.0 0.0 0.0 0.0 0.0 0.0 0.1 0.0 0.0 0.0 0.0 0.0 0.0 0.1 0.2 0.3 0.4 0.5 0.3 0.4 0.2 0.1
0.3 0.4 2.6 0.0 0.0 0.0 0.0 0.0 0.0 0.0 0.0 0.0 0.0 0.0 0.0 0.0 0.0 0.0 0.0 0.0 0.0 0.0 0.0 0.0 0.0 0.0 0.0 0.1 0.1 0.1 0.0 0.0 0.1 0.1 0.0 0.0 0.1 0.1 0.1 0.1 0.0 0.0 0.0 0.0
0.0 0.0 0.0 0.0 0.0 0.0 0.0 0.0 0.0 0.0 0.0 0.0 0.0 0.0 0.0 0.0 0.0 0.0 0.0 0.0 0.0 0.0 0.0 0.0 0.0 0.0 0.0 0.1 0.0 0.0 0.0 0.0 0.0 0.0 0.0 0.0 0.0 0.0 0.0 0.0 0.0 0.0 0.0 0.0
0.0 0.0 0.0 0.0 0.0 0.0 0.0 0.0 0.0 0.0 0.0 0.0 0.0 0.0 0.0 0.0 0.0 0.0 0.0 0.0 0.0 0.0 0.0 0.0 0.0 0.0 0.0 0.0 0.0 0.0 0.0 0.0 0.0 0.0 0.0 0.0 0.0 0.0 0.0 0.0 0.0 0.0 0.0 0.0
0.0 0.0 0.0 0.0 0.0 0.0 0.0 0.0 0.0 0.0 0.0 0.0 0.0 0.0 0.0 0.0 0.0 0.0 0.0 0.0 0.0 0.0 0.0 0.0 0.0 0.0 0.0 0.0 0.0 0.0 0.0 0.0 0.0 0.0 0.0 0.0 0.0 0.0 0.0 0.0 0.0 0.0 0.0 0.0
0.1 0.0 0.0 0.0 0.0 0.0 0.0 0.0 0.0 0.0 0.0 0.0 0.0 0.0 0.0 0.0 0.0 0.0 0.0 0.0 0.0 0.0 0.0 0.0 0.0 0.0 0.0 0.0 0.0 0.0 0.0 0.0 0.0 0.0 0.0 0.0 0.0 0.0 nan nan nan nan nan 0.0
0.0 0.0 0.0 0.0 0.0 0.0 0.0 0.0 0.0 0.0 0.0 0.0 0.0 0.0 0.0 0.0 0.0 nan 0.0 0.0 0.0 0.0 0.0 0.0 0.0 0.0 0.0 0.0 0.0 0.0 0.0 0.0 0.0 0.0 0.0 0.0 0.0 0.1 0.1 0.0 nan nan nan nan
0.0 0.0 0.0 0.0 0.0 0.0 0.0 0.0 0.0 0.0 0.0 0.0 0.0 0.0 0.0 0.0 0.0 0.0 0.0 0.0 0.0 0.0 0.0 0.0 0.0 0.0 0.0 0.0 0.0 0.0 0.0 nan 0.0 0.0 0.0 0.0 0.0 0.1 0.1 0.1 0.1 0.0 nan nan
0.0 0.0 0.0 0.0 0.0 0.0 0.0 0.0 0.0 0.0 0.0 0.0 0.0 0.0 0.0 0.0 0.0 0.0 0.0 0.0 0.0 0.0 0.0 0.0 0.0 0.0 0.0 0.0 0.0 0.0 0.0 0.0 0.0 0.0 0.0 0.0 0.0 0.1 0.1 0.1 0.0 0.0 0.0 0.0
0.0 0.0 0.0 0.0 0.0 0.0 0.0 0.0 0.0 0.0 0.0 0.0 0.0 0.0 0.0 0.0 0.0 0.0 0.0 0.0 0.0 0.0 0.0 0.0 0.0 0.0 0.0 0.0 0.0 0.0 0.0 nan 0.0 0.0 0.0 0.0 0.1 0.1 0.1 0.2 0.3 0.1 0.0 0.0
0.0 0.1 0.1 0.1 0.0 0.0 0.0 0.0 0.0 0.0 0.0 0.0 0.0 0.0 0.0 0.0 0.0 0.0 0.0 0.0 0.0 0.0 0.0 0.0 0.0 0.0 0.0 0.0 0.0 0.0 0.0 0.0 nan 0.0 0.1 0.2 0.2 0.3 0.3 0.2 0.3 0.3 0.2 0.2
0.0 0.0 0.0 0.0 0.0 0.0 0.0 0.0 0.0 0.0 0.0 0.0 0.0 0.0 0.0 0.0 0.0 0.0 0.1 0.0 0.0 0.0 0.0 0.0 0.0 0.0 0.0 0.0 0.0 0.0 0.0 0.0 0.0 0.0 0.1 0.4 0.3 0.4 0.4 0.3 0.2 0.2 0.1 0.4
0.0 0.0 0.0 0.0 0.0 0.0 0.0 0.0 0.0 0.0 0.0 0.0 0.0 0.0 0.0 0.0 0.0 0.1 0.1 0.1 0.1 0.2 0.0 0.0 nan 0.0 0.0 0.0 0.0 0.0 0.0 0.0 0.0 0.0 0.1 nan 0.6 0.4 0.5 0.4 0.3 0.2 0.2 0.2
0.1 0.0 0.1 0.1 0.1 0.1 0.2 0.1 0.1 0.0 0.0 0.0 0.0 0.0 0.0 0.0 0.0 0.0 0.1 0.2 0.1 0.1 0.1 0.1 0.1 0.0 0.0 0.0 nan 0.0 0.0 0.0 0.0 0.0 0.0 0.1 0.2 0.3 0.3 nan 0.6 0.6 0.5 0.3
0.3 0.3 0.1 0.0 0.0 0.0 0.0 0.0 0.0 0.0 0.0 0.0 0.0 0.0 0.0 0.0 0.1 0.1 0.4 0.6 0.4 0.3 0.2 nan 0.4 0.3 0.1 0.0 0.0 0.0 0.0 0.0 0.0 0.0 0.1 0.1 0.1 0.3 0.4 0.4 0.8 0.8 0.8 0.9
0.9 0.8 0.9 0.7 0.5 0.6 0.3 0.1 0.1 0.1 0.1 0.1 0.1 0.1 0.1 0.3 0.2 0.3 0.3 0.4 0.7 nan 0.7 0.7 0.6 nan 0.2 nan 0.3 0.1 0.1 0.0 0.1 0.2 0.4 0.3 0.5 1.3 2.0 2.1 2.9 2.2 3.0 3.4
1.8 0.9 0.7 0.9 1.1 1.1 0.6 0.6 0.7 0.6 0.5 0.4 0.4 0.2 0.2 0.2 0.2 0.2 0.2 0.3 0.5 nan 0.4 0.5 nan nan nan 0.6 0.6 0.5 0.5 0.7 0.7 0.6 1.2 2.2 2.6 3.4 3.4 3.4 3.1 3.0 3.8 3.1
0.7 0.6 0.5 0.4 0.3 0.5 0.9 1.1 1.1 0.9 0.4 0.8 0.8 0.8 0.9 1.0 0.8 0.7 0.5 nan nan 0.4 0.4 0.6 nan nan nan 0.6 0.7 0.8 1.0 1.2 2.2 3.0 2.3 nan 4.5 4.1 3.8 3.3 4.2 2.6 2.8 2.7
0.6 0.7 0.8 0.8 0.5 0.2 0.5 0.6 0.5 0.5 0.4 0.9 0.8 0.6 0.8 0.8 1.1 0.8 1.3 1.2 nan 1.1 1.1 nan nan nan 0.7 0.8 1.5 1.8 2.0 3.2 5.8 3.7 2.8 5.1 5.7 5.2 3.8 4.1 4.1 3.6 4.1 3.6
0.0 0.0 0.0 0.0 0.0 0.0 0.0 0.0 0.0 0.0 0.0 0.0 0.0 0.0 0.3 0.4 0.3 0.5 0.5 0.9 0.9 nan 1.2 1.2 1.1 1.0 1.2 1.3 1.4 1.1 1.4 1.8 2.2 1.9 3.5 4.3 4.8 5.0 4.6 4.0 3.6 3.7 3.2 3.9
0.6 nan 0.5 0.0 0.0 0.0 0.0 0.0 0.0 0.0 0.0 0.0 0.0 0.0 0.0 0.1 0.2 0.4 nan 0.1 0.2 0.5 0.7 0.8 1.0 nan 1.4 1.3 1.3 1.2 1.9 2.0 nan 3.7 4.2 6.5 6.0 6.4 4.4 4.2 5.2 3.9 4.2 3.6
Water_Equivalent
0.00 0.00 0.00 0.01 0.02 0.02 0.49 0.03 0.32 0.00 0.00 0.00 0.00 0.00 0.00 0.00 0.00 0.00 0.00 0.00 0.00 0.00 0.00 0.00 0.00 0.00 0.00 0.00 0.00 0.00 0.00 0.00 0.00 0.00 0.00 0.00 0.00 0.00 0.00 0.00 0.00 0.00 0.00 0.00
0.16 0.00 0.00 0.02 0.00 0.00 0.00 0.00 0.00 0.00 0.00 0.00 0.00 0.00 0.00 0.00 0.00 0.00 0.00 0.00 0.00 0.00 0.00 0.00 0.00 0.00 0.00 0.00 0.00 0.00 0.00 0.00 0.00 0.00 0.00 0.00 0.00 0.00 0.00 0.00 0.00 0.00 0.00 0.00
0.19 0.00 0.00 0.13 0.00 0.00 0.00 0.00 0.00 0.07 0.00 0.00 0.00 0.00 0.00 0.00 0.00 0.00 0.00 0.00 0.00 0.00 0.00 0.00 0.00 0.00 0.00 0.00 0.00 0.00 0.00 0.00 0.00 0.00 0.00 0.00 0.00 0.00 0.00 0.01 0.00 0.00 0.01 0.00
0.12 0.00 0.07 0.01 0.00 0.00 0.00 0.00 0.00 0.00 0.00 0.00 0.00 0.00 0.00 0.00 0.00 0.00 0.00 0.00 0.00 0.00 0.00 0.00 0.00 0.00 0.00 0.00 0.00 0.00 0.00 0.00 0.00 0.00 0.00 0.00 0.00 0.01 0.04 0.03 0.04 0.04 0.16 0.12
0.12 0.02 0.00 0.00 0.00 0.00 0.00 0.00 0.00 0.00 0.00 0.00 0.00 0.00 0.00 0.00 0.00 0.00 0.00 0.00 0.00 0.00 0.00 0.00 0.00 0.00 0.00 0.00 0.00 0.00 0.00 0.00 0.00 0.00 0.00 0.01 0.03 0.04 0.03 0.06 0.16 0.17 0.07 0.06
0.13 0.17 0.11 0.00 0.00 0.00 0.00 0.02 0.00 0.00 0.00 0.00 0.00 0.00 0.00 0.00 0.00 0.00 0.00 0.00 0.00 0.00 0.00 0.00 0.00 0.00 0.00 0.00 0.00 0.01 0.00 0.00 0.00 0.01 0.01 0.03 0.03 0.04 0.25 0.07 0.13 0.17 0.09 0.05
0.03 0.13 0.02 0.00 0.00 0.00 0.03 0.01 0.00 0.00 0.00 0.00 0.00 0.00 0.00 0.00 0.00 0.00 0.00 0.00 0.00 0.00 0.00 0.00 0.00 0.00 0.00 0.00 0.02 0.01 0.00 0.00 0.00 0.01 0.02 0.02 0.07 0.11 0.11 0.11 0.08 0.08 0.03 0.02
0.06 0.09 0.45 0.00 0.00 0.00 0.00 0.00 0.00 0.00 0.00 0.00 0.00 0.00 0.00 0.00 0.00 0.00 0.00 0.00 0.00 0.00 0.01 0.00 0.00 0.00 0.01 0.03 0.02 0.02 0.01 0.01 0.02 0.02 0.01 0.01 0.03 0.03 0.03 0.02 0.01 0.01 0.00 0.00
0.00 0.01 0.00 0.00 0.00 0.00 0.00 0.00 0.00 0.00 0.00 0.00 0.00 0.00 0.00 0.00 0.00 0.00 0.00 0.00 0.00 0.00 0.00 0.00 0.00 0.00 0.01 0.02 0.00 0.01 0.00 0.01 0.01 0.00 0.00 0.00 0.00 0.00 0.00 0.00 0.00 0.00 0.00 0.00
0.00 0.00 0.00 0.00 0.00 0.00 0.00 0.00 0.00 0.00 0.00 0.00 0.00 0.00 0.00 0.00 0.00 0.00 0.00 0.00 0.00 0.00 0.00 0.00 0.00 0.00 0.00 0.00 0.00 0.00 0.00 0.00 0.00 0.00 0.00 0.00 0.00 0.00 0.00 0.00 0.00 0.00 0.00 0.00
0.00 0.00 0.00 0.00 0.00 0.00 0.00 0.00 0.00 0.00 0.00 0.00 0.00 0.00 0.00 0.00 0.00 0.00 0.00 0.00 0.00 0.00 0.00 0.00 0.00 0.00 0.00 0.00 0.00 0.00 0.00 0.00 0.00 0.00 0.00 0.00 0.00 0.00 0.00 0.00 0.00 0.00 0.00 0.00
0.01 0.00 0.00 0.00 0.00 0.00 0.00 0.00 0.00 0.00 0.00 0.00 0.00 0.00 0.00 0.00 0.00 0.00 0.00 0.00 0.00 0.00 0.00 0.00 0.00 0.00 0.00 0.00 0.00 0.00 0.00 0.00 0.00 0.00 0.00 0.00 0.00 0.01 nan nan nan nan nan 0.00
0.00 0.00 0.00 0.00 0.00 0.00 0.00 0.00 0.00 0.00 0.00 0.00 0.00 0.00 0.00 0.00 0.00 nan 0.00 0.00 0.00 0.00 0.00 0.00 0.00 0.00 0.00 0.00 0.00 0.00 0.00 0.00 0.00 0.00 0.00 0.00 0.01 0.01 0.01 0.01 nan nan nan nan
0.00 0.00 0.00 0.00 0.00 0.00 0.00 0.00 0.00 0.00 0.00 0.00 0.00 0.00 0.00 0.00 0.00 0.00 0.00 0.00 0.00 0.00 0.00 0.00 0.00 0.00 0.00 0.00 0.00 0.00 0.00 nan 0.00 0.00 0.00 0.00 0.00 0.01 0.01 0.01 0.01 0.00 nan nan
0.00 0.00 0.00 0.00 0.00 0.00 0.00 0.00 0.00 0.00 0.00 0.00 0.00 0.00 0.00 0.00 0.00 0.00 0.00 0.00 0.00 0.00 0.00 0.00 0.00 0.00 0.00 0.00 0.00 0.00 0.00 0.00 0.00 0.00 0.00 0.00 0.00 0.01 0.01 0.01 0.00 0.00 0.00 0.00
0.00 0.00 0.00 0.00 0.00 0.01 0.01 0.00 0.00 0.00 0.00 0.00 0.00 0.00 0.00 0.00 0.00 0.00 0.00 0.00 0.00 0.00 0.00 0.00 0.00 0.00 0.00 0.00 0.00 0.00 0.00 nan 0.00 0.00 0.01 0.01 0.01 0.02 0.02 0.04 0.04 0.02 0.01 0.00
0.01 0.03 0.02 0.03 0.01 0.00 0.00 0.00 0.00 0.00 0.00 0.00 0.00 0.00 0.00 0.00 0.00 0.00 0.00 0.00 0.00 0.00 0.00 0.00 0.00 0.00 0.00 0.00 0.00 0.00 0.00 0.00 nan 0.00 0.01 0.03 0.03 0.05 0.04 0.03 0.05 0.05 0.03 0.03
0.00 0.00 0.00 0.00 0.00 0.00 0.00 0.00 0.00 0.00 0.00 0.00 0.00 0.00 0.00 0.00 0.02 0.01 0.02 0.00 0.00 0.01 0.00 0.00 0.00 0.00 0.00 0.00 0.00 0.00 0.00 0.00 0.00 0.00 0.02 0.07 0.06 0.08 0.07 0.04 0.03 0.03 0.02 0.07
0.00 0.00 0.00 0.00 0.00 0.00 0.00 0.00 0.00 0.00 0.00 0.00 0.00 0.00 0.00 0.00 0.01 0.02 0.02 0.03 0.03 0.04 0.01 0.00 nan 0.00 0.00 0.00 0.00 0.00 0.00 0.00 0.00 0.00 0.01 nan 0.11 0.07 0.09 0.06 0.04 0.03 0.04 0.04
0.02 0.00 0.01 0.01 0.01 0.02 0.04 0.01 0.01 0.00 0.00 0.00 0.00 0.00 0.00 0.00 0.01 0.01 0.02 0.06 0.03 0.02 0.04 0.04 0.02 0.00 0.00 0.00 nan 0.00 0.00 0.00 0.00 0.00 0.00 0.02 0.04 0.05 0.05 nan 0.11 0.11 0.09 0.05
0.06 0.05 0.03 0.00 0.01 0.00 0.00 0.00 0.00 0.00 0.00 0.00 0.00 0.00 0.01 0.00 0.02 0.03 0.08 0.13 0.09 0.10 0.07 nan 0.11 0.08 0.02 0.01 0.00 0.00 0.00 0.00 0.00 0.01 0.02 0.02 0.02 0.06 0.07 0.06 0.11 0.12 0.11 0.12
0.21 0.17 0.18 0.13 0.09 0.10 0.05 0.02 0.02 0.03 0.02 0.02 0.02 0.02 0.01 0.05 0.03 0.06 0.07 0.09 0.15 nan 0.18 0.17 0.15 nan 0.06 nan 0.08 0.02 0.02 0.01 0.02 0.05 0.08 0.07 0.09 0.21 0.30 0.32 0.42 0.30 0.39 0.43
0.39 0.18 0.16 0.17 0.22 0.22 0.11 0.12 0.11 0.10 0.09 0.07 0.07 0.05 0.04 0.04 0.05 0.05 0.03 0.04 0.11 nan 0.10 0.11 nan nan nan 0.14 0.14 0.11 0.11 0.14 0.13 0.12 0.22 0.38 0.44 0.55 0.55 0.52 0.47 0.46 0.52 0.42
0.12 0.11 0.09 0.06 0.06 0.08 0.15 0.20 0.19 0.18 0.07 0.12 0.13 0.13 0.14 0.16 0.14 0.12 0.08 nan nan 0.09 0.08 0.12 nan nan nan 0.13 0.14 0.16 0.19 0.22 0.36 0.48 0.38 nan 0.69 0.60 0.56 0.50 0.61 0.41 0.42 0.43
0.12 0.12 0.14 0.13 0.08 0.04 0.06 0.09 0.07 0.07 0.12 0.15 0.13 0.10 0.11 0.13 0.16 0.13 0.18 0.17 nan 0.17 0.17 nan nan nan 0.13 0.14 0.23 0.28 0.31 0.51 0.87 0.55 0.42 0.73 0.77 0.72 0.53 0.57 0.57 0.51 0.59 0.54
0.00 0.00 0.00 0.00 0.00 0.00 0.00 0.00 0.00 0.00 0.00 0.00 0.00 0.02 0.07 0.06 0.05 0.07 0.07 0.12 0.13 nan 0.18 0.18 0.17 0.16 0.20 0.21 0.21 0.18 0.20 0.25 0.32 0.30 0.47 0.55 0.64 0.68 0.61 0.53 0.50 0.51 0.46 0.56
0.09 nan 0.08 0.00 0.00 0.00 0.00 0.00 0.00 0.00 0.00 0.00 0.00 0.01 0.01 0.02 0.04 0.06 nan 0.02 0.03 0.07 0.10 0.11 0.15 nan 0.20 0.18 0.18 0.17 0.23 0.25 nan 0.43 0.49 0.73 0.71 0.79 0.56 0.54 0.68 0.51 0.56 0.48
SL_Ratio
nan nan nan 3.4 3.4 3.3 4.1 3.6 5.0 nan nan nan nan nan nan nan nan nan nan nan nan nan nan nan nan nan nan nan nan nan nan nan nan nan nan nan nan nan nan nan nan nan nan nan
3.0 nan nan 3.1 nan nan nan nan 0.0 nan nan nan nan nan nan nan nan nan nan nan nan nan nan nan nan nan nan nan nan nan nan nan nan nan nan nan nan nan nan nan nan nan nan nan
3.8 0.0 nan 4.1 3.0 0.0 nan nan nan 2.9 nan nan nan nan nan nan nan nan nan nan nan nan nan nan nan nan nan nan nan nan nan nan nan nan nan nan nan nan nan 2.5 2.5 2.5 2.4 5.0
3.8 3.8 4.9 3.9 nan nan nan nan nan nan nan nan nan nan nan nan nan nan nan nan nan nan nan nan nan nan nan nan nan nan nan nan nan nan nan nan nan 2.4 2.5 2.5 2.7 2.8 2.5 2.5
3.8 4.1 nan nan nan nan 2.5 nan nan nan nan nan nan nan nan nan nan nan nan nan nan nan nan nan nan nan nan nan nan nan nan 2.5 nan nan 2.0 2.6 2.6 2.5 2.5 2.5 2.5 2.5 2.6 3.1
3.3 4.7 4.4 nan nan nan nan 4.1 nan nan nan nan nan nan nan nan nan nan nan nan nan nan nan nan nan nan nan nan nan 2.4 5.0 2.5 nan 2.5 2.4 2.5 2.6 3.0 2.7 2.8 3.0 3.5 3.9 4.0
4.2 4.4 3.8 nan nan nan 4.3 4.5 nan nan nan nan nan nan nan nan nan nan nan nan nan nan nan nan nan nan 3.3 nan 2.5 2.4 nan 2.5 2.5 2.4 2.5 2.5 2.5 2.7 3.4 4.2 4.3 4.6 4.6 4.3
4.6 4.3 5.8 nan nan nan 7.5 nan nan nan nan nan nan nan nan nan nan nan nan nan nan 3.0 2.4 nan nan nan 2.6 2.6 2.5 2.5 2.5 2.6 2.8 2.8 3.0 3.2 3.3 3.9 4.1 4.5 4.4 4.4 nan nan
nan 3.6 nan nan nan nan nan nan nan nan nan nan nan nan nan nan nan nan nan nan nan nan nan nan nan nan 2.8 2.7 2.7 2.7 2.5 2.9 3.0 nan 3.3 nan nan nan nan nan nan nan nan nan
nan nan nan nan nan nan nan nan nan nan nan nan nan nan nan nan nan nan nan nan nan nan nan nan nan nan nan nan nan nan nan nan nan nan nan nan nan nan nan nan 0.0 nan nan nan
nan nan nan nan nan nan nan nan nan nan nan nan nan nan nan nan nan nan nan nan nan nan nan nan nan nan nan nan nan nan nan nan nan nan nan nan nan nan nan nan 5.0 nan nan nan
5.6 nan nan nan nan nan nan nan nan nan nan nan nan nan nan nan nan nan nan nan nan nan nan nan nan nan nan nan nan nan nan nan nan nan nan nan 4.4 5.6 nan nan nan nan nan nan
nan nan nan nan nan nan nan nan nan nan nan nan nan nan nan nan nan nan nan nan nan nan nan nan nan nan nan nan nan nan nan nan nan nan nan 5.0 5.4 5.8 6.8 5.6 nan nan nan nan
nan nan nan nan nan nan nan nan nan nan nan nan nan nan nan nan nan nan nan nan nan nan nan nan nan nan nan nan nan nan nan nan nan nan nan nan 5.5 5.7 5.9 6.5 6.7 6.9 nan nan
nan nan nan nan nan nan nan nan nan nan nan nan nan nan nan nan nan nan nan nan nan nan nan nan nan nan nan nan nan nan nan nan nan nan nan nan 5.8 6.0 6.0 6.4 6.3 7.5 7.0 5.0
nan nan nan nan 2.0 2.4 2.5 2.5 nan nan nan nan nan nan nan nan nan nan nan nan nan nan nan nan nan nan nan nan nan nan nan nan nan 6.0 5.4 5.7 5.9 6.7 6.7 6.6 6.6 6.5 6.2 5.0
2.7 2.8 2.5 2.6 2.5 nan nan nan nan nan nan nan nan nan nan nan nan 2.9 nan nan nan nan nan nan nan nan nan nan nan nan nan nan nan 5.0 5.5 5.6 5.9 6.6 6.7 6.5 6.2 6.6 6.7 6.2
nan nan nan nan nan nan nan nan nan nan nan nan nan nan nan 1.7 2.5 2.5 2.5 2.3 2.3 2.5 nan nan nan nan nan nan nan nan nan nan nan 5.0 5.5 5.9 5.6 5.6 6.2 6.5 6.4 6.3 6.4 6.5
5.0 nan nan nan nan nan nan 5.0 5.8 5.0 nan nan nan nan nan 0.0 2.4 3.0 2.6 2.8 2.7 3.5 3.0 2.8 nan nan nan nan nan nan nan nan nan nan 5.4 nan 5.2 5.5 6.1 6.1 6.1 6.0 5.8 6.2
5.0 5.0 5.3 5.5 5.6 5.6 5.9 6.4 6.7 6.0 nan nan nan nan nan nan 2.4 2.5 2.6 3.7 3.2 3.4 3.3 3.0 3.0 3.1 3.8 nan nan nan nan nan nan nan 5.0 5.2 5.4 5.6 6.1 nan 5.8 5.7 5.8 5.9
5.2 5.5 5.8 5.5 6.0 5.0 nan 5.8 5.0 nan 5.0 nan 5.0 nan 2.8 2.2 3.4 3.6 4.9 4.5 4.0 3.1 3.2 nan 3.5 3.6 3.4 3.4 nan nan nan 2.5 4.1 4.6 4.9 4.8 5.4 4.9 5.9 7.1 7.1 7.1 7.2 7.0
4.5 4.9 5.2 5.4 5.9 5.8 5.5 4.5 5.1 5.5 5.6 5.8 5.8 5.8 5.7 6.3 5.9 5.3 4.6 4.4 4.4 nan 3.6 3.8 3.9 nan 3.7 nan 3.8 3.8 4.0 4.2 4.3 4.5 4.7 4.9 5.4 6.3 6.5 6.6 7.0 7.4 7.8 7.7
4.7 4.8 4.6 5.0 5.1 4.9 5.0 5.2 5.9 5.7 5.5 5.6 5.5 5.3 5.2 4.8 4.9 5.3 6.2 5.8 4.5 nan 4.0 4.8 nan nan nan 3.9 4.1 4.5 4.7 5.0 5.0 5.0 5.4 5.8 5.9 6.2 6.3 6.5 6.6 6.6 7.2 7.3
5.2 5.5 5.7 5.5 5.7 6.1 6.1 5.2 5.5 5.1 6.0 6.6 6.4 6.5 6.6 6.5 6.1 5.8 5.7 nan nan 4.2 5.2 5.0 nan nan nan 4.3 5.2 5.3 5.2 5.4 6.0 6.3 6.1 nan 6.4 6.8 6.8 6.7 6.9 6.4 6.7 6.4
5.4 5.5 6.0 6.5 6.7 6.7 7.2 6.5 7.1 6.8 3.5 5.8 5.9 6.3 6.9 6.3 7.0 6.5 7.1 7.0 nan 6.4 6.4 nan nan nan 5.0 5.7 6.4 6.6 6.4 6.4 6.6 6.8 6.7 7.1 7.4 7.2 7.3 7.2 7.1 7.0 6.8 6.7
nan 0.0 nan 5.0 nan 6.2 5.4 5.0 5.0 5.0 nan nan 3.1 2.5 3.7 5.6 6.5 6.7 6.7 6.8 6.9 nan 6.9 6.7 6.4 6.0 6.4 6.5 6.6 6.5 6.9 7.3 6.7 6.5 7.5 7.8 7.4 7.4 7.5 7.5 7.3 7.2 6.9 7.0
6.7 nan 6.3 nan nan nan nan 6.7 7.5 7.5 nan nan 2.7 2.5 2.6 2.7 4.7 5.8 nan 7.3 7.4 7.2 7.3 7.1 6.7 nan 6.9 7.2 7.2 7.0 8.1 8.0 nan 8.8 8.7 8.8 8.5 8.0 7.8 7.7 7.6 7.6 7.6 7.6